| time (UTC) | temp C | wind direction | speed KPH | gust KPH | rain 1hr cm | rain 24hr cm | rain mn cm | humidity % | barometer mb |
| 20260506081503 | 14 | 337 | 1.6 | 9.7 | 0.00 | 0.00 | 0.00 | 78 | 1010.0 |
| 20260506081003 | 14 | 344 | 1.6 | 14.5 | 0.00 | 0.00 | 0.00 | 78 | 1010.0 |
| 20260506080503 | 15 | 342 | 3.2 | 14.5 | 0.00 | 0.00 | 0.00 | 78 | 1010.0 |
| 20260506073503 | 15 | 339 | 1.6 | 12.9 | 0.00 | 0.00 | 0.00 | 78 | 1009.9 |
| 20260506073003 | 15 | 347 | 1.6 | 8.0 | 0.00 | 0.00 | 0.00 | 78 | 1009.6 |
| 20260506072503 | 15 | 349 | 1.6 | 8.0 | 0.00 | 0.00 | 0.00 | 78 | 1009.3 |
| 20260506072003 | 15 | 346 | 1.6 | 6.4 | 0.00 | 0.00 | 0.00 | 78 | 1009.3 |
| 20260506071503 | 15 | 341 | 0.0 | 6.4 | 0.00 | 0.00 | 0.00 | 79 | 1009.2 |
| 20260506071003 | 15 | 337 | 1.6 | 9.7 | 0.00 | 0.00 | 0.00 | 79 | 1009.2 |
| 20260506070503 | 15 | 338 | 1.6 | 9.7 | 0.00 | 0.00 | 0.00 | 78 | 1009.3 |
| 20260506062003 | 15 | 341 | 3.2 | 12.9 | 0.00 | 0.00 | 0.00 | 79 | 1009.8 |
| 20260506061503 | 15 | 339 | 3.2 | 12.9 | 0.00 | 0.00 | 0.00 | 80 | 1009.5 |
| 20260506061003 | 15 | 343 | 3.2 | 12.9 | 0.00 | 0.00 | 0.00 | 80 | 1009.5 |
| 20260506060503 | 15 | 339 | 3.2 | 12.9 | 0.00 | 0.00 | 0.00 | 80 | 1009.5 |
| 20260506051003 | 16 | 341 | 3.2 | 12.9 | 0.00 | 0.00 | 0.00 | 80 | 1009.8 |
| 20260506050712 | 16 | 332 | 3.2 | 12.9 | 0.00 | 0.00 | 0.00 | 80 | 1009.8 |
| 20260506045003 | 16 | 346 | 3.2 | 14.5 | 0.00 | 0.00 | 0.00 | 80 | 1009.6 |
| 20260506044503 | 16 | 338 | 1.6 | 14.5 | 0.00 | 0.00 | 0.00 | 80 | 1009.6 |
| 20260506044003 | 16 | 317 | 1.6 | 11.3 | 0.00 | 0.00 | 0.00 | 80 | 1009.5 |
| 20260506043503 | 16 | 324 | 1.6 | 12.9 | 0.00 | 0.00 | 0.00 | 79 | 1009.6 |
| 20260506043003 | 16 | 338 | 3.2 | 17.7 | 0.00 | 0.00 | 0.00 | 79 | 1009.5 |
| 20260506042503 | 16 | 344 | 3.2 | 17.7 | 0.00 | 0.00 | 0.00 | 79 | 1009.5 |
| 20260506042003 | 16 | 340 | 3.2 | 14.5 | 0.00 | 0.00 | 0.00 | 79 | 1009.5 |
| 20260506041503 | 16 | 337 | 3.2 | 12.9 | 0.00 | 0.00 | 0.00 | 79 | 1009.5 |
| 20260506041003 | 17 | 335 | 3.2 | 17.7 | 0.00 | 0.00 | 0.00 | 79 | 1009.5 |
| 20260506040503 | 17 | 337 | 3.2 | 17.7 | 0.00 | 0.00 | 0.00 | 79 | 1009.5 |
| 20260506040213 | 17 | 339 | 3.2 | 16.1 | 0.00 | 0.00 | 0.00 | 79 | 1009.6 |
| 20260506035503 | 17 | 344 | 3.2 | 14.5 | 0.00 | 0.00 | 0.00 | 78 | 1009.4 |
| 20260506035003 | 17 | 339 | 1.6 | 12.9 | 0.00 | 0.00 | 0.00 | 78 | 1009.3 |
| 20260506034714 | 17 | 332 | 1.6 | 11.3 | 0.00 | 0.00 | 0.00 | 78 | 1009.1 |
| 20260506034003 | 17 | 341 | 1.6 | 11.3 | 0.00 | 0.00 | 0.00 | 78 | 1009.0 |
| 20260506033503 | 17 | 343 | 1.6 | 11.3 | 0.00 | 0.00 | 0.00 | 78 | 1008.7 |
| 20260506033003 | 17 | 337 | 3.2 | 17.7 | 0.00 | 0.00 | 0.00 | 78 | 1008.7 |
| 20260506032503 | 17 | 334 | 3.2 | 17.7 | 0.00 | 0.00 | 0.00 | 77 | 1008.3 |
| 20260506032003 | 18 | 341 | 3.2 | 14.5 | 0.00 | 0.00 | 0.00 | 77 | 1008.2 |
| 20260506031714 | 18 | 339 | 3.2 | 14.5 | 0.00 | 0.00 | 0.00 | 77 | 1008.3 |
| 20260506031213 | 18 | 346 | 3.2 | 14.5 | 0.00 | 0.00 | 0.00 | 77 | 1008.3 |
| 20260506030714 | 18 | 350 | 1.6 | 9.7 | 0.00 | 0.00 | 0.00 | 76 | 1008.3 |
| 20260506030212 | 18 | 340 | 1.6 | 11.3 | 0.00 | 0.00 | 0.00 | 77 | 1008.3 |
| 20260506025713 | 18 | 328 | 1.6 | 11.3 | 0.00 | 0.00 | 0.00 | 76 | 1008.2 |
| 20260506025003 | 19 | 326 | 3.2 | 12.9 | 0.00 | 0.00 | 0.00 | 76 | 1008.1 |
| 20260506024503 | 19 | 343 | 1.6 | 12.9 | 0.00 | 0.00 | 0.00 | 76 | 1008.0 |
| 20260506024003 | 20 | 349 | 1.6 | 11.3 | 0.00 | 0.00 | 0.00 | 76 | 1007.7 |
| 20260506023503 | 20 | 341 | 1.6 | 11.3 | 0.00 | 0.00 | 0.00 | 75 | 1007.8 |
| 20260506023003 | 20 | 342 | 1.6 | 11.3 | 0.00 | 0.00 | 0.00 | 75 | 1007.6 |
| 20260506022503 | 20 | 343 | 1.6 | 8.0 | 0.00 | 0.00 | 0.00 | 75 | 1007.6 |
| 20260506022003 | 20 | 339 | 1.6 | 9.7 | 0.00 | 0.00 | 0.00 | 75 | 1007.6 |
| 20260506021503 | 20 | 331 | 1.6 | 9.7 | 0.00 | 0.00 | 0.00 | 74 | 1007.1 |
| 20260506021003 | 20 | 335 | 1.6 | 8.0 | 0.00 | 0.00 | 0.00 | 74 | 1007.2 |
| 20260506020713 | 20 | 343 | 1.6 | 9.7 | 0.00 | 0.00 | 0.00 | 74 | 1007.1 |
| 20260506020003 | 20 | 336 | 1.6 | 9.7 | 0.00 | 0.00 | 0.00 | 74 | 1006.9 |
| 20260506015503 | 20 | 332 | 1.6 | 9.7 | 0.00 | 0.00 | 0.00 | 74 | 1007.2 |
| 20260506015003 | 20 | 330 | 1.6 | 9.7 | 0.00 | 0.00 | 0.00 | 74 | 1006.8 |
| 20260506014503 | 20 | 337 | 3.2 | 14.5 | 0.00 | 0.00 | 0.00 | 74 | 1006.5 |
| 20260506014003 | 20 | 344 | 3.2 | 14.5 | 0.00 | 0.00 | 0.00 | 73 | 1006.5 |
| 20260506013503 | 20 | 341 | 3.2 | 12.9 | 0.00 | 0.00 | 0.00 | 73 | 1006.5 |
| 20260506013003 | 20 | 341 | 1.6 | 9.7 | 0.00 | 0.00 | 0.00 | 72 | 1006.6 |
| 20260506012713 | 20 | 337 | 1.6 | 9.7 | 0.00 | 0.00 | 0.00 | 72 | 1006.4 |
| 20260506012003 | 21 | 340 | 3.2 | 12.9 | 0.00 | 0.00 | 0.00 | 72 | 1006.2 |
| 20260506011713 | 21 | 340 | 3.2 | 12.9 | 0.00 | 0.00 | 0.00 | 72 | 1005.8 |
| 20260506011214 | 21 | 338 | 3.2 | 12.9 | 0.00 | 0.00 | 0.00 | 71 | 1006.1 |
| 20260506010713 | 21 | 340 | 1.6 | 9.7 | 0.00 | 0.00 | 0.00 | 71 | 1006.0 |
| 20260506010003 | 21 | 337 | 1.6 | 9.7 | 0.00 | 0.00 | 0.00 | 72 | 1005.7 |
| 20260506005503 | 21 | 342 | 3.2 | 12.9 | 0.00 | 0.00 | 0.00 | 72 | 1005.4 |
| 20260506005003 | 22 | 338 | 3.2 | 17.7 | 0.00 | 0.00 | 0.00 | 71 | 1005.7 |
| 20260506004503 | 22 | 331 | 3.2 | 17.7 | 0.00 | 0.00 | 0.00 | 70 | 1005.6 |
| 20260506004003 | 22 | 335 | 1.6 | 12.9 | 0.00 | 0.00 | 0.00 | 71 | 1005.4 |
| 20260506003503 | 22 | 347 | 1.6 | 11.3 | 0.00 | 0.00 | 0.00 | 71 | 1005.3 |
| 20260506003003 | 22 | 338 | 1.6 | 14.5 | 0.00 | 0.00 | 0.00 | 70 | 1004.9 |
| 20260506002503 | 22 | 343 | 3.2 | 16.1 | 0.00 | 0.00 | 0.00 | 70 | 1005.1 |
| 20260506002003 | 23 | 350 | 3.2 | 16.1 | 0.00 | 0.00 | 0.00 | 70 | 1005.1 |
| 20260506001503 | 23 | 348 | 3.2 | 12.9 | 0.00 | 0.00 | 0.00 | 69 | 1004.9 |
| 20260506001003 | 23 | 342 | 1.6 | 11.3 | 0.00 | 0.00 | 0.00 | 69 | 1004.9 |
| 20260506000503 | 23 | 334 | 1.6 | 12.9 | 0.00 | 0.00 | 0.00 | 69 | 1004.9 |
| 20260506000003 | 23 | 341 | 1.6 | 12.9 | 0.00 | 0.00 | 0.00 | 68 | 1004.8 |
| 20260505235503 | 24 | 349 | 1.6 | 11.3 | 0.00 | 0.00 | 0.00 | 67 | 1004.9 |
| 20260505235003 | 24 | 350 | 3.2 | 16.1 | 0.00 | 0.00 | 0.00 | 67 | 1004.8 |
| 20260505234503 | 25 | 344 | 3.2 | 16.1 | 0.00 | 0.00 | 0.00 | 66 | 1004.8 |
| 20260505234003 | 25 | 337 | 1.6 | 12.9 | 0.00 | 0.00 | 0.00 | 66 | 1004.7 |
| 20260505233503 | 25 | 346 | 1.6 | 11.3 | 0.00 | 0.00 | 0.00 | 65 | 1004.7 |
| 20260505233003 | 25 | 349 | 1.6 | 11.3 | 0.00 | 0.00 | 0.00 | 65 | 1004.4 |
| 20260505232503 | 25 | 338 | 1.6 | 9.7 | 0.00 | 0.00 | 0.00 | 65 | 1004.4 |
| 20260505232213 | 26 | 344 | 1.6 | 16.1 | 0.00 | 0.00 | 0.00 | 64 | 1004.3 |
| 20260505231503 | 26 | 332 | 3.2 | 16.1 | 0.00 | 0.00 | 0.00 | 64 | 1004.6 |
| 20260505231003 | 26 | 321 | 3.2 | 16.1 | 0.00 | 0.00 | 0.00 | 63 | 1004.3 |
| 20260505230712 | 26 | 329 | 1.6 | 12.9 | 0.00 | 0.00 | 0.00 | 63 | 1004.2 |
| 20260505230003 | 27 | 317 | 3.2 | 12.9 | 0.00 | 0.00 | 0.00 | 62 | 1004.1 |
| 20260505225503 | 27 | 307 | 1.6 | 12.9 | 0.00 | 0.00 | 0.00 | 61 | 1004.1 |
| 20260505225003 | 27 | 320 | 1.6 | 12.9 | 0.00 | 0.00 | 0.00 | 60 | 1004.2 |
| 20260505224503 | 27 | 324 | 1.6 | 8.0 | 0.00 | 0.00 | 0.00 | 60 | 1004.0 |
| 20260505224003 | 27 | 336 | 3.2 | 12.9 | 0.00 | 0.00 | 0.00 | 60 | 1003.7 |
| 20260505223503 | 28 | 332 | 3.2 | 12.9 | 0.00 | 0.00 | 0.00 | 60 | 1003.6 |
| 20260505223003 | 28 | 315 | 1.6 | 9.7 | 0.00 | 0.00 | 0.00 | 60 | 1003.6 |
| 20260505222503 | 28 | 296 | 3.2 | 12.9 | 0.00 | 0.00 | 0.00 | 60 | 1003.7 |
| 20260505222003 | 28 | 298 | 3.2 | 12.9 | 0.00 | 0.00 | 0.00 | 59 | 1003.6 |
| 20260505221503 | 29 | 325 | 1.6 | 12.9 | 0.00 | 0.00 | 0.00 | 57 | 1003.5 |
| 20260505221003 | 30 | 323 | 1.6 | 11.3 | 0.00 | 0.00 | 0.00 | 58 | 1003.3 |
| 20260505220714 | 30 | 306 | 1.6 | 9.7 | 0.00 | 0.00 | 0.00 | 56 | 1003.4 |
| 20260505220003 | 30 | 328 | 1.6 | 9.7 | 0.00 | 0.00 | 0.00 | 53 | 1003.4 |
| 20260505215503 | 30 | 319 | 1.6 | 8.0 | 0.00 | 0.00 | 0.00 | 52 | 1003.3 |
| 20260505215213 | 30 | 311 | 1.6 | 9.7 | 0.00 | 0.00 | 0.00 | 52 | 1003.2 |
| 20260505214503 | 30 | 312 | 3.2 | 11.3 | 0.00 | 0.00 | 0.00 | 50 | 1003.3 |
| 20260505214003 | 31 | 310 | 1.6 | 11.3 | 0.00 | 0.00 | 0.00 | 49 | 1003.6 |
| 20260505213503 | 31 | 297 | 3.2 | 16.1 | 0.00 | 0.00 | 0.00 | 48 | 1003.5 |
| 20260505213003 | 31 | 274 | 3.2 | 16.1 | 0.00 | 0.00 | 0.00 | 50 | 1003.4 |
| 20260505212713 | 31 | 279 | 3.2 | 12.9 | 0.00 | 0.00 | 0.00 | 50 | 1003.4 |
| 20260505212213 | 31 | 303 | 1.6 | 12.9 | 0.00 | 0.00 | 0.00 | 49 | 1003.3 |
| 20260505211503 | 31 | 326 | 1.6 | 8.0 | 0.00 | 0.00 | 0.00 | 50 | 1003.3 |
| 20260505211213 | 31 | 296 | 3.2 | 17.7 | 0.00 | 0.00 | 0.00 | 49 | 1003.4 |
| 20260505210503 | 32 | 266 | 4.8 | 17.7 | 0.00 | 0.00 | 0.00 | 50 | 1003.4 |
| 20260505210003 | 33 | 256 | 4.8 | 16.1 | 0.00 | 0.00 | 0.00 | 53 | 1003.5 |
| 20260505205503 | 32 | 245 | 4.8 | 16.1 | 0.00 | 0.00 | 0.00 | 53 | 1003.3 |
| 20260505205003 | 33 | 231 | 4.8 | 12.9 | 0.00 | 0.00 | 0.00 | 54 | 1003.3 |
| 20260505204503 | 33 | 212 | 4.8 | 12.9 | 0.00 | 0.00 | 0.00 | 53 | 1003.4 |
| 20260505204003 | 33 | 208 | 6.4 | 14.5 | 0.00 | 0.00 | 0.00 | 52 | 1003.5 |
| 20260505203503 | 33 | 215 | 4.8 | 14.5 | 0.00 | 0.00 | 0.00 | 53 | 1003.5 |
| 20260505203003 | 33 | 214 | 4.8 | 14.5 | 0.00 | 0.00 | 0.00 | 53 | 1003.6 |
| 20260505202503 | 32 | 228 | 4.8 | 14.5 | 0.00 | 0.00 | 0.00 | 55 | 1003.7 |
| 20260505202003 | 32 | 214 | 6.4 | 17.7 | 0.00 | 0.00 | 0.00 | 54 | 1003.6 |
| 20260505201503 | 32 | 225 | 6.4 | 17.7 | 0.00 | 0.00 | 0.00 | 54 | 1003.6 |
| 20260505201003 | 32 | 247 | 6.4 | 17.7 | 0.00 | 0.00 | 0.00 | 55 | 1003.7 |
| 20260505200503 | 32 | 231 | 8.0 | 16.1 | 0.00 | 0.00 | 0.00 | 54 | 1003.9 |
| 20260505200003 | 32 | 210 | 6.4 | 20.9 | 0.00 | 0.00 | 0.00 | 54 | 1003.8 |
| 20260505195503 | 32 | 205 | 4.8 | 20.9 | 0.00 | 0.00 | 0.00 | 57 | 1003.8 |
| 20260505195003 | 32 | 213 | 4.8 | 14.5 | 0.00 | 0.00 | 0.00 | 57 | 1003.9 |
| 20260505194503 | 32 | 223 | 6.4 | 19.3 | 0.00 | 0.00 | 0.00 | 56 | 1004.0 |
| 20260505194003 | 31 | 208 | 6.4 | 19.3 | 0.00 | 0.00 | 0.00 | 57 | 1003.9 |
| 20260505193713 | 31 | 208 | 6.4 | 19.3 | 0.00 | 0.00 | 0.00 | 57 | 1003.9 |
| 20260505193003 | 31 | 219 | 6.4 | 17.7 | 0.00 | 0.00 | 0.00 | 59 | 1004.0 |
| 20260505192503 | 31 | 220 | 6.4 | 12.9 | 0.00 | 0.00 | 0.00 | 59 | 1004.0 |
| 20260505192003 | 31 | 222 | 6.4 | 17.7 | 0.00 | 0.00 | 0.00 | 60 | 1004.1 |
| 20260505191713 | 31 | 217 | 6.4 | 17.7 | 0.00 | 0.00 | 0.00 | 61 | 1003.7 |
| 20260505191003 | 31 | 211 | 6.4 | 17.7 | 0.00 | 0.00 | 0.00 | 62 | 1003.7 |
| 20260505190503 | 31 | 211 | 6.4 | 17.7 | 0.00 | 0.00 | 0.00 | 62 | 1003.9 |
| 20260505190003 | 31 | 204 | 4.8 | 16.1 | 0.00 | 0.00 | 0.00 | 63 | 1003.9 |
| 20260505185503 | 31 | 203 | 6.4 | 14.5 | 0.00 | 0.00 | 0.00 | 64 | 1003.9 |
| 20260505185003 | 30 | 209 | 6.4 | 17.7 | 0.00 | 0.00 | 0.00 | 64 | 1003.7 |
| 20260505184503 | 30 | 197 | 6.4 | 17.7 | 0.00 | 0.00 | 0.00 | 65 | 1003.9 |
| 20260505184003 | 30 | 192 | 6.4 | 19.3 | 0.00 | 0.00 | 0.00 | 65 | 1003.9 |
| 20260505183503 | 29 | 201 | 6.4 | 19.3 | 0.00 | 0.00 | 0.00 | 66 | 1003.9 |
| 20260505183213 | 29 | 198 | 6.4 | 17.7 | 0.00 | 0.00 | 0.00 | 66 | 1004.0 |
| 20260505182503 | 29 | 188 | 6.4 | 19.3 | 0.00 | 0.00 | 0.00 | 66 | 1004.0 |
| 20260505182213 | 29 | 197 | 6.4 | 20.9 | 0.00 | 0.00 | 0.00 | 67 | 1004.0 |
| 20260505181503 | 29 | 169 | 8.0 | 20.9 | 0.00 | 0.00 | 0.00 | 66 | 1004.0 |
| 20260505181003 | 29 | 148 | 6.4 | 17.7 | 0.00 | 0.00 | 0.00 | 68 | 1003.9 |
| 20260505180712 | 29 | 153 | 6.4 | 17.7 | 0.00 | 0.00 | 0.00 | 67 | 1003.9 |
| 20260505180003 | 29 | 193 | 6.4 | 17.7 | 0.00 | 0.00 | 0.00 | 67 | 1004.1 |
| 20260505175503 | 29 | 189 | 8.0 | 20.9 | 0.00 | 0.00 | 0.00 | 66 | 1004.2 |
| 20260505175003 | 29 | 193 | 8.0 | 20.9 | 0.00 | 0.00 | 0.00 | 66 | 1004.2 |
| 20260505174503 | 29 | 183 | 8.0 | 19.3 | 0.00 | 0.00 | 0.00 | 67 | 1004.1 |
| 20260505174003 | 29 | 189 | 8.0 | 19.3 | 0.00 | 0.00 | 0.00 | 67 | 1004.0 |
| 20260505173503 | 28 | 181 | 8.0 | 20.9 | 0.00 | 0.00 | 0.00 | 68 | 1004.1 |
| 20260505173003 | 28 | 158 | 8.0 | 20.9 | 0.00 | 0.00 | 0.00 | 68 | 1004.0 |
| 20260505172503 | 28 | 167 | 8.0 | 19.3 | 0.00 | 0.00 | 0.00 | 68 | 1004.0 |
| 20260505172213 | 28 | 155 | 8.0 | 19.3 | 0.00 | 0.00 | 0.00 | 68 | 1004.0 |
| 20260505171503 | 28 | 167 | 8.0 | 17.7 | 0.00 | 0.00 | 0.00 | 69 | 1004.0 |
| 20260505171003 | 28 | 181 | 8.0 | 16.1 | 0.00 | 0.00 | 0.00 | 69 | 1004.1 |
| 20260505170503 | 28 | 190 | 6.4 | 16.1 | 0.00 | 0.00 | 0.00 | 69 | 1004.1 |
| 20260505170003 | 28 | 184 | 6.4 | 16.1 | 0.00 | 0.00 | 0.00 | 69 | 1004.0 |
| 20260505165503 | 28 | 198 | 6.4 | 17.7 | 0.00 | 0.00 | 0.00 | 71 | 1004.1 |
| 20260505165003 | 27 | 186 | 8.0 | 17.7 | 0.00 | 0.00 | 0.00 | 71 | 1004.1 |
| 20260505164503 | 27 | 182 | 6.4 | 17.7 | 0.00 | 0.00 | 0.00 | 72 | 1004.2 |
| 20260505164213 | 27 | 193 | 8.0 | 17.7 | 0.00 | 0.00 | 0.00 | 72 | 1004.1 |
| 20260505163503 | 27 | 205 | 8.0 | 17.7 | 0.00 | 0.00 | 0.00 | 73 | 1004.0 |
| 20260505163003 | 27 | 175 | 8.0 | 22.5 | 0.00 | 0.00 | 0.00 | 72 | 1004.1 |
| 20260505162503 | 26 | 151 | 8.0 | 22.5 | 0.00 | 0.00 | 0.00 | 72 | 1004.0 |
| 20260505162003 | 27 | 150 | 8.0 | 20.9 | 0.00 | 0.00 | 0.00 | 72 | 1004.0 |
| 20260505161503 | 27 | 156 | 8.0 | 22.5 | 0.00 | 0.00 | 0.00 | 73 | 1004.0 |
| 20260505161003 | 27 | 171 | 6.4 | 22.5 | 0.00 | 0.00 | 0.00 | 73 | 1004.0 |
| 20260505160503 | 26 | 169 | 6.4 | 14.5 | 0.00 | 0.00 | 0.00 | 74 | 1003.8 |
| 20260505153003 | 25 | 174 | 6.4 | 17.7 | 0.00 | 0.00 | 0.00 | 78 | 1003.9 |
| 20260505152503 | 25 | 178 | 6.4 | 17.7 | 0.00 | 0.00 | 0.00 | 78 | 1003.7 |
| 20260505152212 | 25 | 179 | 6.4 | 20.9 | 0.00 | 0.00 | 0.00 | 78 | 1003.8 |
| 20260505151713 | 25 | 152 | 8.0 | 20.9 | 0.00 | 0.00 | 0.00 | 78 | 1003.7 |
| 20260505151003 | 25 | 157 | 6.4 | 14.5 | 0.00 | 0.00 | 0.00 | 78 | 1003.6 |
| 20260505150503 | 25 | 141 | 6.4 | 14.5 | 0.00 | 0.00 | 0.00 | 78 | 1003.7 |
| 20260505140503 | 23 | 148 | 6.4 | 19.3 | 0.00 | 0.00 | 0.00 | 83 | 1003.6 |
| 20260505140214 | 23 | 152 | 6.4 | 19.3 | 0.00 | 0.00 | 0.00 | 83 | 1003.4 |
| 20260505130213 | 22 | 144 | 6.4 | 17.7 | 0.00 | 0.00 | 0.00 | 86 | 1003.2 |
| 20260505124503 | 21 | 155 | 4.8 | 14.5 | 0.00 | 0.00 | 0.00 | 88 | 1003.5 |
| 20260505124003 | 21 | 151 | 4.8 | 12.9 | 0.00 | 0.00 | 0.00 | 88 | 1003.4 |
| 20260505123503 | 21 | 157 | 4.8 | 14.5 | 0.00 | 0.00 | 0.00 | 88 | 1003.2 |
| 20260505123213 | 21 | 148 | 4.8 | 14.5 | 0.00 | 0.00 | 0.00 | 88 | 1003.1 |
| 20260505122503 | 21 | 157 | 4.8 | 12.9 | 0.00 | 0.00 | 0.00 | 88 | 1003.2 |
| 20260505122003 | 21 | 161 | 4.8 | 12.9 | 0.00 | 0.00 | 0.00 | 89 | 1003.1 |
| 20260505121503 | 21 | 157 | 3.2 | 11.3 | 0.00 | 0.00 | 0.00 | 88 | 1002.9 |
| 20260505121003 | 21 | 144 | 4.8 | 14.5 | 0.00 | 0.00 | 0.00 | 88 | 1002.9 |
| 20260505120503 | 21 | 144 | 4.8 | 16.1 | 0.00 | 0.00 | 0.00 | 88 | 1002.8 |
| 20260505120003 | 21 | 151 | 4.8 | 16.1 | 0.00 | 0.00 | 0.00 | 88 | 1002.7 |
| 20260505115503 | 21 | 148 | 4.8 | 14.5 | 0.00 | 0.00 | 0.00 | 88 | 1002.8 |
| 20260505115003 | 21 | 143 | 4.8 | 19.3 | 0.00 | 0.00 | 0.00 | 88 | 1002.9 |
| 20260505114503 | 21 | 152 | 6.4 | 19.3 | 0.00 | 0.00 | 0.00 | 88 | 1002.7 |
| 20260505114003 | 21 | 162 | 4.8 | 16.1 | 0.00 | 0.00 | 0.00 | 88 | 1002.7 |
| 20260505113503 | 21 | 157 | 6.4 | 17.7 | 0.00 | 0.00 | 0.00 | 88 | 1002.6 |
| 20260505113003 | 21 | 156 | 6.4 | 17.7 | 0.00 | 0.00 | 0.00 | 88 | 1002.6 |
| 20260505112503 | 21 | 155 | 6.4 | 17.7 | 0.00 | 0.00 | 0.00 | 88 | 1002.5 |
| 20260505112213 | 21 | 162 | 6.4 | 16.1 | 0.00 | 0.00 | 0.00 | 88 | 1002.5 |
| 20260505111503 | 21 | 157 | 6.4 | 22.5 | 0.00 | 0.00 | 0.00 | 88 | 1002.5 |
| 20260505111003 | 21 | 160 | 6.4 | 17.7 | 0.00 | 0.00 | 0.00 | 88 | 1002.5 |
| 20260505110503 | 21 | 162 | 6.4 | 19.3 | 0.00 | 0.00 | 0.00 | 88 | 1002.5 |
| 20260505102003 | 21 | 148 | 8.0 | 22.5 | 0.00 | 0.00 | 0.00 | 87 | 1002.5 |
| 20260505101503 | 21 | 167 | 8.0 | 20.9 | 0.00 | 0.00 | 0.00 | 87 | 1002.5 |
| 20260505101003 | 21 | 158 | 8.0 | 22.5 | 0.00 | 0.00 | 0.00 | 87 | 1002.5 |
| 20260505100503 | 21 | 148 | 8.0 | 22.5 | 0.00 | 0.00 | 0.00 | 87 | 1002.5 |
| 20260505100003 | 21 | 146 | 8.0 | 20.9 | 0.00 | 0.00 | 0.00 | 87 | 1002.5 |
| 20260505095503 | 21 | 148 | 9.7 | 19.3 | 0.00 | 0.00 | 0.00 | 87 | 1002.6 |
| 20260505095003 | 21 | 146 | 8.0 | 19.3 | 0.00 | 0.00 | 0.00 | 86 | 1002.6 |
| 20260505094713 | 21 | 148 | 8.0 | 19.3 | 0.00 | 0.00 | 0.00 | 86 | 1002.7 |
| 20260505094003 | 21 | 150 | 8.0 | 17.7 | 0.00 | 0.00 | 0.00 | 86 | 1002.5 |
| 20260505093503 | 21 | 153 | 8.0 | 19.3 | 0.00 | 0.00 | 0.00 | 86 | 1002.5 |
| 20260505093003 | 21 | 156 | 8.0 | 20.9 | 0.00 | 0.00 | 0.00 | 86 | 1002.6 |
| 20260505092503 | 21 | 157 | 9.7 | 22.5 | 0.00 | 0.00 | 0.00 | 85 | 1002.7 |
| 20260505092003 | 21 | 171 | 9.7 | 22.5 | 0.00 | 0.00 | 0.00 | 85 | 1002.7 |
| 20260505091503 | 22 | 167 | 11.3 | 24.1 | 0.00 | 0.00 | 0.00 | 85 | 1002.7 |
| 20260505091003 | 22 | 152 | 9.7 | 24.1 | 0.00 | 0.00 | 0.00 | 84 | 1002.7 |
| 20260505090503 | 22 | 155 | 9.7 | 27.4 | 0.00 | 0.00 | 0.00 | 84 | 1002.8 |
| 20260505090003 | 22 | 140 | 9.7 | 30.6 | 0.00 | 0.00 | 0.00 | 84 | 1002.9 |
| 20260505085713 | 22 | 137 | 11.3 | 30.6 | 0.00 | 0.00 | 0.00 | 84 | 1002.9 |
| 20260505085003 | 22 | 146 | 11.3 | 24.1 | 0.00 | 0.00 | 0.00 | 83 | 1002.9 |
| 20260505084503 | 22 | 143 | 9.7 | 24.1 | 0.00 | 0.00 | 0.00 | 83 | 1002.9 |
| 20260505084003 | 22 | 140 | 9.7 | 22.5 | 0.00 | 0.00 | 0.00 | 82 | 1003.0 |
| 20260505083503 | 22 | 138 | 9.7 | 22.5 | 0.00 | 0.00 | 0.00 | 82 | 1003.1 |
| 20260505083003 | 22 | 136 | 9.7 | 20.9 | 0.00 | 0.00 | 0.00 | 82 | 1003.0 |
| 20260505082503 | 22 | 135 | 8.0 | 20.9 | 0.00 | 0.00 | 0.00 | 81 | 1003.1 |
| 20260505082003 | 22 | 139 | 9.7 | 24.1 | 0.00 | 0.00 | 0.00 | 81 | 1003.1 |
| 20260505081713 | 22 | 135 | 9.7 | 24.1 | 0.00 | 0.00 | 0.00 | 81 | 1003.0 |